Regional Weather Roundup
Issued by NWS Newport/Morehead, NC

Current Version | Previous Version | Graphics & Text | Print | Product List | Glossary Off
Versions: 1 2 3 4 5 6 7 8 9 10 11 12 13 14 15 16 17 18 19 20 21 22 23 24 25 26 27 28 29 30 31 32 33 34 35 36 37 38 39 40 41 42 43 44 45 46 47 48 49 50

000
ASUS42 KMHX 010010
RWRMHX
WEATHER ROUNDUP FOR EASTERN NORTH CAROLINA
NATIONAL WEATHER SERVICE NEWPORT/MOREHEAD CITY NC
700 PM EST SAT JAN 31 2015

NOTE: "FAIR" INDICATES FEW OR NO CLOUDS BELOW 12,000 FEET
WITH NO SIGNIFICANT WEATHER AND/OR OBSTRUCTIONS TO VISIBILITY

NCZ015>017-031-032-045>047-102-103-010100-
NORTH COAST

CITY           SKY/WX    TMP DP  RH WIND       PRES   REMARKS
EDENTON        CLEAR     33  20  58 CALM      30.32S
ELIZABETH CITY CLEAR     32  16  51 CALM      30.32R
KITTY HAWK     CLEAR     36  18  48 W3        30.30S
MANTEO         CLEAR     36  19  51 W3        30.32S

$$

NCZ045>047-081-094-103-104-010100-
CENTRAL COAST

CITY           SKY/WX    TMP DP  RH WIND       PRES   REMARKS
FRISCO         CLEAR     36  20  52 W5        30.34R
SWANQUARTER      N/A     34 N/A N/A CALM      30.30

$$

NCZ095-097-098-100-101-010100-
SOUTHERN COAST

CITY           SKY/WX    TMP DP  RH WIND       PRES   REMARKS
BEAUFORT       CLEAR     33  22  63 CALM      30.35R
CEDAR ISLAND   NOT AVBL
JACKSONVILLE   CLEAR     36  19  50 S6        30.34R
PINEY ISLAND     N/A    N/A N/A N/A MISG      30.34R
WILMINGTON     CLEAR     38  24  57 S5        30.35R


$$

NCZ011>013-027>030-043-044-078>080-089-090>093-098-010100-
COASTAL PLAIN

CITY           SKY/WX    TMP DP  RH WIND       PRES   REMARKS
AHOSKIE        CLEAR     30  15  52 CALM      30.32R
CLINTON        CLEAR     36  19  51 CALM      30.33S
ELIZABETHTOWN  CLEAR     38  16  40 CALM      30.33R
GOLDSBORO      CLEAR     35  18  48 CALM      30.31R
GREENVILLE     CLEAR     34  18  51 CALM      30.34R
HAVELOCK       CLEAR     34  20  56 CALM      30.35R
KENANSVILLE    CLEAR     32  22  67 CALM      30.34R
KINSTON        CLEAR     30  21  69 CALM      30.34R
NEW BERN       CLEAR     34  18  52 CALM      30.35R
RICHLANDS      CLEAR     34  18  51 CALM      30.35R
ROCKY MOUNT    CLEAR     32  18  56 CALM      30.32R
WASHINGTON     CLEAR     32  17  54 CALM      30.34R
WHITEVILLE     CLEAR     39  19  44 CALM      30.33R

$$

AMZ130-135-150-152-154-156-158-170-250-252-270-ANZ085-086-088-633-658-670-010100-
MARINE OBSERVATIONS

STATION/POSITION TIME  TEMP    WIND        PRES    WAVE   SWELL
                       AIR SEA DIR/SP/G            HT/PER HT/PER
                 (UTC) (F)     (DEG/KT/KT) (MB)    (FT/S) (FT/S)
CHESAPEAKE LIGHT 2300   36     300/ 13/ 15 1026.3
64 E VA BEACH    0000   38 48  320/ 23/ 27 1024.7    9/ 9   3/ 9
DUCK             0000   37 40  270/  6/  7 1025.6
2 E DUCK         0000      41                N/A     4/ 8   2/11
10 NE DUCK       0000      43                N/A     5/ 9   2/11
OREGON INLET     0000   36 40  270/  5/  8 1026.8
13E OREGON INLT  0000      45                N/A     7/ 8   2/11
HATTERAS CG      0000   40 41  300/  7/  8 1027.5
DIAMOND BUOY     0000   42 71  290/ 14/ 19 1027.1    5/ 9   3/ 9
17 S OCRACOKE    NOT AVBL
CAPE LOOKOUT     2300   41     200/  3/  3 1027.0
BEAUFORT LAB     0000   39 45   CALM  /  1 1026.4
27 SE WRIGHTSVLE NOT AVBL
5 SE WRIGHTSVLE  2300   44 51  210/ 10/ 12 1027.3
225 S CAPE HAT   NOT AVBL
41 SE CHARLESTON 0000   51 69   50/  4/  8 1027.8    4/11   3/11

$$


USA.gov is the U.S. government's official web portal to all federal, state and local government web resources and services.